Time,TemperatureF,DewpointF,PressureIn,WindDirection,WindDirectionDegrees,WindSpeedMPH,WindSpeedGustMPH,Humidity,HourlyPrecipIn,Conditions,Clouds,dailyrainin,SoftwareType,DateUTC
2013-06-30 00:02:00,70.0,66.0,29.68,North,0,0.0,0.0,86,0.00,,,0.01,,2013-06-30 04:02:00,
2013-06-30 00:12:00,70.0,66.0,29.68,North,0,0.0,0.0,86,0.00,,,0.01,,2013-06-30 04:12:00,
2013-06-30 00:22:00,70.0,66.0,29.69,North,0,0.0,0.0,86,0.00,,,0.01,,2013-06-30 04:22:00,
2013-06-30 00:33:00,70.0,66.0,29.68,North,0,0.0,0.0,87,0.00,,,0.01,,2013-06-30 04:33:00,
2013-06-30 00:43:00,70.0,66.0,29.69,North,0,0.0,0.0,88,0.00,,,0.01,,2013-06-30 04:43:00,
2013-06-30 01:02:00,70.0,67.0,29.70,North,0,0.0,1.0,89,0.00,,,0.01,,2013-06-30 05:02:00,
2013-06-30 01:12:00,70.0,67.0,29.70,North,0,0.0,0.0,90,0.00,,,0.01,,2013-06-30 05:12:00,
2013-06-30 01:22:00,70.0,67.0,29.70,North,0,0.0,0.0,91,0.00,,,0.01,,2013-06-30 05:22:00,
2013-06-30 01:34:00,70.0,68.0,29.70,North,0,0.0,0.0,92,0.00,,,0.01,,2013-06-30 05:34:00,
2013-06-30 01:43:00,70.0,68.0,29.70,North,0,0.0,0.0,92,0.00,,,0.01,,2013-06-30 05:43:00,
2013-06-30 01:53:00,70.0,68.0,29.69,North,0,0.0,0.0,92,0.00,,,0.01,,2013-06-30 05:53:00,
2013-06-30 02:02:00,70.0,68.0,29.69,North,0,0.0,0.0,92,0.00,,,0.01,,2013-06-30 06:02:00,
2013-06-30 02:23:00,71.0,69.0,29.69,North,0,0.0,0.0,92,0.00,,,0.01,,2013-06-30 06:23:00,
2013-06-30 02:34:00,71.0,69.0,29.69,North,0,0.0,0.0,92,0.00,,,0.01,,2013-06-30 06:34:00,
2013-06-30 02:43:00,71.0,69.0,29.70,North,0,0.0,0.0,92,0.00,,,0.01,,2013-06-30 06:43:00,
2013-06-30 02:53:00,71.0,69.0,29.70,North,0,0.0,0.0,92,0.00,,,0.01,,2013-06-30 06:53:00,
2013-06-30 03:02:00,71.0,69.0,29.69,North,0,0.0,0.0,92,0.00,,,0.01,,2013-06-30 07:02:00,
2013-06-30 03:12:00,71.0,69.0,29.69,North,0,0.0,0.0,92,0.00,,,0.01,,2013-06-30 07:12:00,
2013-06-30 03:22:00,71.0,69.0,29.69,North,0,0.0,0.0,92,0.00,,,0.01,,2013-06-30 07:22:00,
2013-06-30 03:33:00,71.0,69.0,29.69,North,0,0.0,0.0,92,0.00,,,0.01,,2013-06-30 07:33:00,
2013-06-30 03:44:00,71.0,69.0,29.69,North,0,0.0,0.0,93,0.00,,,0.01,,2013-06-30 07:44:00,
2013-06-30 03:53:00,71.0,69.0,29.69,North,0,0.0,0.0,93,0.00,,,0.01,,2013-06-30 07:53:00,
2013-06-30 04:02:00,71.0,69.0,29.69,North,0,0.0,0.0,94,0.00,,,0.01,,2013-06-30 08:02:00,
2013-06-30 04:22:00,72.0,70.0,29.69,North,0,0.0,0.0,94,0.00,,,0.01,,2013-06-30 08:22:00,
2013-06-30 04:34:00,72.0,70.0,29.70,North,0,0.0,0.0,94,0.00,,,0.00,,2013-06-30 08:34:00,
2013-06-30 04:42:00,72.0,70.0,29.70,North,0,0.0,1.0,95,0.00,,,0.00,,2013-06-30 08:42:00,
2013-06-30 04:53:00,72.0,70.0,29.70,North,0,0.0,0.0,95,0.00,,,0.00,,2013-06-30 08:53:00,
2013-06-30 05:02:00,72.0,70.0,29.70,North,0,0.0,0.0,95,0.00,,,0.00,,2013-06-30 09:02:00,
2013-06-30 05:12:00,72.0,70.0,29.70,North,0,0.0,0.0,95,0.00,,,0.00,,2013-06-30 09:12:00,
2013-06-30 05:23:00,73.0,71.0,29.71,North,0,0.0,0.0,95,0.00,,,0.00,,2013-06-30 09:23:00,
2013-06-30 05:34:00,73.0,71.0,29.71,North,0,0.0,0.0,95,0.00,,,0.00,,2013-06-30 09:34:00,
2013-06-30 05:43:00,73.0,72.0,29.71,North,0,0.0,0.0,96,0.00,,,0.00,,2013-06-30 09:43:00,
2013-06-30 05:53:00,73.0,72.0,29.72,North,0,0.0,0.0,96,0.00,,,0.00,,2013-06-30 09:53:00,
2013-06-30 06:02:00,73.0,72.0,29.72,North,0,0.0,0.0,96,0.00,,,0.00,,2013-06-30 10:02:00,
2013-06-30 06:22:00,73.0,72.0,29.73,North,0,0.0,0.0,96,0.00,,,0.00,,2013-06-30 10:22:00,
2013-06-30 06:33:00,73.0,72.0,29.73,North,0,0.0,0.0,96,0.00,,,0.00,,2013-06-30 10:33:00,
2013-06-30 06:42:00,73.0,72.0,29.73,North,0,0.0,0.0,97,0.00,,,0.00,,2013-06-30 10:42:00,
2013-06-30 06:53:00,73.0,72.0,29.74,North,0,0.0,0.0,97,0.00,,,0.00,,2013-06-30 10:53:00,
2013-06-30 07:02:00,73.0,72.0,29.74,North,0,0.0,0.0,97,0.00,,,0.00,,2013-06-30 11:02:00,
2013-06-30 07:11:00,73.0,72.0,29.75,North,0,0.0,1.0,97,0.00,,,0.00,,2013-06-30 11:11:00,
2013-06-30 07:22:00,74.0,73.0,29.75,North,0,0.0,1.0,97,0.00,,,0.00,,2013-06-30 11:22:00,
2013-06-30 07:33:00,74.0,73.0,29.75,North,0,0.0,0.0,97,0.00,,,0.00,,2013-06-30 11:33:00,
2013-06-30 07:43:00,74.0,73.0,29.75,North,0,0.0,4.0,97,0.00,,,0.00,,2013-06-30 11:43:00,
2013-06-30 07:53:00,74.0,73.0,29.76,North,0,0.0,0.0,97,0.00,,,0.00,,2013-06-30 11:53:00,
2013-06-30 08:02:00,74.0,73.0,29.76,North,0,0.0,2.0,97,0.00,,,0.00,,2013-06-30 12:02:00,
2013-06-30 08:11:00,74.0,73.0,29.76,North,0,0.0,2.0,98,0.00,,,0.00,,2013-06-30 12:11:00,
2013-06-30 08:24:00,74.0,73.0,29.76,North,0,0.0,1.0,98,0.00,,,0.00,,2013-06-30 12:24:00,
2013-06-30 08:33:00,74.0,73.0,29.76,North,0,0.0,1.0,98,0.00,,,0.00,,2013-06-30 12:33:00,
2013-06-30 08:43:00,75.0,74.0,29.76,North,0,0.0,1.0,98,0.00,,,0.00,,2013-06-30 12:43:00,
2013-06-30 08:52:00,75.0,74.0,29.76,North,0,0.0,0.0,98,0.00,,,0.00,,2013-06-30 12:52:00,
2013-06-30 09:02:00,76.0,75.0,29.77,North,0,0.0,2.0,97,0.00,,,0.00,,2013-06-30 13:02:00,
2013-06-30 09:34:00,76.0,75.0,29.78,North,0,0.0,0.0,96,0.00,,,0.00,,2013-06-30 13:34:00,
2013-06-30 09:43:00,77.0,76.0,29.77,North,0,0.0,1.0,96,0.00,,,0.00,,2013-06-30 13:43:00,
2013-06-30 09:53:00,78.0,75.0,29.77,North,0,0.0,3.0,92,0.00,,,0.00,,2013-06-30 13:53:00,
2013-06-30 10:02:00,78.0,75.0,29.77,North,0,0.0,2.0,91,0.00,,,0.00,,2013-06-30 14:02:00,
2013-06-30 10:11:00,78.0,75.0,29.77,North,0,0.0,3.0,91,0.00,,,0.00,,2013-06-30 14:11:00,
2013-06-30 10:33:00,79.0,75.0,29.77,North,0,0.0,2.0,88,0.00,,,0.00,,2013-06-30 14:33:00,
2013-06-30 10:44:00,79.0,75.0,29.78,North,0,0.0,3.0,88,0.00,,,0.00,,2013-06-30 14:44:00,
2013-06-30 10:52:00,79.0,75.0,29.78,North,0,0.0,3.0,89,0.00,,,0.00,,2013-06-30 14:52:00,
2013-06-30 11:02:00,78.0,74.0,29.78,North,0,0.0,6.0,89,0.00,,,0.00,,2013-06-30 15:02:00,
2013-06-30 11:12:00,78.0,75.0,29.78,North,0,0.0,2.0,91,0.00,,,0.00,,2013-06-30 15:12:00,
2013-06-30 11:23:00,78.0,75.0,29.78,North,0,0.0,1.0,91,0.00,,,0.00,,2013-06-30 15:23:00,
2013-06-30 11:34:00,79.0,75.0,29.77,North,0,0.0,1.0,89,0.00,,,0.00,,2013-06-30 15:34:00,
2013-06-30 11:44:00,79.0,75.0,29.77,North,0,0.0,3.0,89,0.00,,,0.00,,2013-06-30 15:44:00,
2013-06-30 11:53:00,80.0,76.0,29.77,North,0,0.0,3.0,88,0.00,,,0.00,,2013-06-30 15:53:00,
2013-06-30 12:01:00,80.0,75.0,29.77,North,0,0.0,3.0,86,0.00,,,0.00,,2013-06-30 16:01:00,
2013-06-30 12:11:00,81.0,76.0,29.76,North,0,0.0,1.0,85,0.00,,,0.00,,2013-06-30 16:11:00,
2013-06-30 12:21:00,81.0,76.0,29.76,North,0,0.0,1.0,84,0.00,,,0.00,,2013-06-30 16:21:00,
2013-06-30 12:34:00,80.0,75.0,29.78,North,0,0.0,3.0,86,0.00,,,0.00,,2013-06-30 16:34:00,
2013-06-30 12:44:00,79.0,75.0,29.78,North,0,0.0,4.0,87,0.00,,,0.00,,2013-06-30 16:44:00,
2013-06-30 12:53:00,79.0,75.0,29.78,North,0,0.0,5.0,88,0.00,,,0.00,,2013-06-30 16:53:00,
2013-06-30 13:02:00,78.0,74.0,29.78,North,0,0.0,4.0,89,0.00,,,0.00,,2013-06-30 17:02:00,
2013-06-30 13:23:00,76.0,73.0,29.78,North,0,0.0,2.0,89,0.05,,,0.05,,2013-06-30 17:23:00,
2013-06-30 13:34:00,74.0,72.0,29.78,North,0,0.0,5.0,93,0.05,,,0.05,,2013-06-30 17:34:00,
2013-06-30 13:43:00,75.0,73.0,29.78,North,0,0.0,4.0,94,0.05,,,0.05,,2013-06-30 17:43:00,
2013-06-30 13:52:00,76.0,74.0,29.78,North,0,0.0,2.0,94,0.05,,,0.05,,2013-06-30 17:52:00,
2013-06-30 14:02:00,76.0,73.0,29.78,North,0,0.0,5.0,90,0.05,,,0.05,,2013-06-30 18:02:00,
2013-06-30 14:12:00,77.0,73.0,29.78,North,0,0.0,4.0,87,0.02,,,0.05,,2013-06-30 18:12:00,
2013-06-30 14:22:00,79.0,74.0,29.79,North,0,0.0,4.0,84,0.00,,,0.05,,2013-06-30 18:22:00,
2013-06-30 14:34:00,78.0,73.0,29.78,North,0,0.0,5.0,84,0.00,,,0.05,,2013-06-30 18:34:00,
2013-06-30 14:43:00,79.0,73.0,29.78,North,0,0.0,5.0,81,0.00,,,0.05,,2013-06-30 18:43:00,
2013-06-30 14:53:00,79.0,72.0,29.78,West,263,1.0,6.0,80,0.00,,,0.05,,2013-06-30 18:53:00,
2013-06-30 15:01:00,76.0,71.0,29.78,North,0,0.0,7.0,85,0.00,,,0.05,,2013-06-30 19:01:00,
2013-06-30 15:12:00,76.0,72.0,29.79,North,0,0.0,5.0,87,0.00,,,0.05,,2013-06-30 19:12:00,
2013-06-30 15:22:00,76.0,72.0,29.79,North,0,0.0,7.0,86,0.00,,,0.05,,2013-06-30 19:22:00,
2013-06-30 15:33:00,75.0,71.0,29.78,North,0,0.0,5.0,86,0.00,,,0.05,,2013-06-30 19:33:00,
2013-06-30 15:43:00,75.0,71.0,29.79,North,0,0.0,5.0,87,0.00,,,0.05,,2013-06-30 19:43:00,
2013-06-30 15:53:00,75.0,71.0,29.79,SW,216,1.0,6.0,87,0.00,,,0.05,,2013-06-30 19:53:00,
2013-06-30 16:02:00,76.0,72.0,29.79,North,0,0.0,5.0,87,0.00,,,0.05,,2013-06-30 20:02:00,
2013-06-30 16:12:00,78.0,72.0,29.79,SW,224,1.0,6.0,83,0.00,,,0.05,,2013-06-30 20:12:00,
2013-06-30 16:22:00,78.0,72.0,29.78,SW,234,1.0,6.0,81,0.00,,,0.05,,2013-06-30 20:22:00,
2013-06-30 16:34:00,78.0,71.0,29.79,WSW,241,1.0,5.0,79,0.00,,,0.05,,2013-06-30 20:34:00,
2013-06-30 16:42:00,78.0,71.0,29.78,North,0,0.0,4.0,80,0.00,,,0.05,,2013-06-30 20:42:00,
2013-06-30 16:52:00,79.0,72.0,29.78,WSW,238,1.0,5.0,80,0.00,,,0.05,,2013-06-30 20:52:00,
2013-06-30 17:01:00,79.0,73.0,29.78,North,0,0.0,3.0,82,0.00,,,0.05,,2013-06-30 21:01:00,
2013-06-30 17:11:00,79.0,72.0,29.79,North,0,0.0,5.0,80,0.00,,,0.05,,2013-06-30 21:11:00,
2013-06-30 17:22:00,77.0,71.0,29.78,North,0,0.0,3.0,82,0.00,,,0.05,,2013-06-30 21:22:00,
2013-06-30 17:34:00,77.0,72.0,29.78,North,0,0.0,2.0,84,0.00,,,0.05,,2013-06-30 21:34:00,
2013-06-30 17:43:00,77.0,72.0,29.78,North,0,0.0,5.0,85,0.00,,,0.05,,2013-06-30 21:43:00,
2013-06-30 17:53:00,77.0,72.0,29.78,North,0,0.0,3.0,86,0.00,,,0.05,,2013-06-30 21:53:00,
2013-06-30 18:01:00,77.0,72.0,29.78,North,0,0.0,3.0,86,0.00,,,0.05,,2013-06-30 22:01:00,
2013-06-30 18:22:00,78.0,73.0,29.79,North,0,0.0,3.0,86,0.00,,,0.05,,2013-06-30 22:22:00,
2013-06-30 18:34:00,78.0,74.0,29.79,North,0,0.0,5.0,87,0.00,,,0.05,,2013-06-30 22:34:00,
2013-06-30 18:43:00,78.0,73.0,29.79,North,0,0.0,5.0,86,0.00,,,0.05,,2013-06-30 22:43:00,
2013-06-30 18:53:00,78.0,73.0,29.79,WSW,239,2.0,7.0,84,0.00,,,0.05,,2013-06-30 22:53:00,
2013-06-30 19:02:00,78.0,73.0,29.79,North,0,0.0,6.0,85,0.00,,,0.05,,2013-06-30 23:02:00,
2013-06-30 19:11:00,77.0,72.0,29.79,North,0,0.0,2.0,86,0.00,,,0.05,,2013-06-30 23:11:00,
2013-06-30 19:22:00,77.0,72.0,29.80,North,0,0.0,5.0,86,0.00,,,0.05,,2013-06-30 23:22:00,
2013-06-30 19:33:00,77.0,72.0,29.80,North,0,0.0,5.0,86,0.00,,,0.05,,2013-06-30 23:33:00,
2013-06-30 19:44:00,77.0,72.0,29.81,North,0,0.0,1.0,86,0.00,,,0.05,,2013-06-30 23:44:00,
2013-06-30 19:53:00,77.0,73.0,29.81,North,0,0.0,1.0,87,0.00,,,0.05,,2013-06-30 23:53:00,
2013-06-30 20:01:00,76.0,72.0,29.81,North,0,0.0,3.0,87,0.00,,,0.05,,2013-07-01 00:01:00,
2013-06-30 20:11:00,76.0,72.0,29.82,North,0,0.0,1.0,88,0.00,,,0.05,,2013-07-01 00:11:00,
2013-06-30 20:22:00,76.0,72.0,29.82,North,0,0.0,1.0,88,0.00,,,0.05,,2013-07-01 00:22:00,
2013-06-30 20:33:00,76.0,73.0,29.82,North,0,0.0,1.0,89,0.00,,,0.05,,2013-07-01 00:33:00,
2013-06-30 20:42:00,75.0,72.0,29.83,North,0,0.0,1.0,89,0.00,,,0.05,,2013-07-01 00:42:00,
2013-06-30 20:52:00,75.0,72.0,29.83,North,0,0.0,0.0,90,0.00,,,0.05,,2013-07-01 00:52:00,
2013-06-30 21:01:00,75.0,72.0,29.83,North,0,0.0,0.0,90,0.00,,,0.05,,2013-07-01 01:01:00,
2013-06-30 21:11:00,75.0,72.0,29.83,North,0,0.0,0.0,90,0.00,,,0.05,,2013-07-01 01:11:00,
2013-06-30 21:22:00,75.0,72.0,29.83,North,0,0.0,0.0,90,0.00,,,0.05,,2013-07-01 01:22:00,
2013-06-30 21:33:00,75.0,72.0,29.83,North,0,0.0,0.0,90,0.00,,,0.05,,2013-07-01 01:33:00,
2013-06-30 21:42:00,74.0,71.0,29.84,North,0,0.0,0.0,91,0.00,,,0.05,,2013-07-01 01:42:00,
2013-06-30 21:52:00,74.0,71.0,29.84,North,0,0.0,0.0,91,0.00,,,0.05,,2013-07-01 01:52:00,
2013-06-30 22:02:00,74.0,71.0,29.85,North,0,0.0,0.0,91,0.00,,,0.05,,2013-07-01 02:02:00,
2013-06-30 22:12:00,74.0,71.0,29.85,North,0,0.0,0.0,91,0.00,,,0.05,,2013-07-01 02:12:00,
2013-06-30 22:22:00,74.0,71.0,29.84,North,0,0.0,0.0,91,0.00,,,0.05,,2013-07-01 02:22:00,
2013-06-30 22:44:00,74.0,72.0,29.85,North,0,0.0,1.0,92,0.00,,,0.05,,2013-07-01 02:44:00,
2013-06-30 22:53:00,74.0,72.0,29.85,North,0,0.0,0.0,92,0.00,,,0.05,,2013-07-01 02:53:00,
2013-06-30 23:01:00,74.0,72.0,29.85,North,0,0.0,0.0,93,0.00,,,0.05,,2013-07-01 03:01:00,
2013-06-30 23:11:00,74.0,72.0,29.85,North,0,0.0,0.0,93,0.00,,,0.05,,2013-07-01 03:11:00,
2013-06-30 23:23:00,74.0,72.0,29.85,North,0,0.0,0.0,93,0.00,,,0.05,,2013-07-01 03:23:00,
2013-06-30 23:33:00,74.0,72.0,29.85,North,0,0.0,0.0,94,0.00,,,0.05,,2013-07-01 03:33:00,
2013-06-30 23:43:00,74.0,72.0,29.85,North,0,0.0,0.0,94,0.00,,,0.05,,2013-07-01 03:43:00,
2013-06-30 23:52:00,74.0,72.0,29.85,North,0,0.0,0.0,94,0.00,,,0.05,,2013-07-01 03:52:00,